AXM110 OSDI-OJAI

Flight info

Callsign AXM110
Flight time 0h 35m
Altitude 13000
Route BUS1 BUSRA L513 LOSAR LOSAR6A
Aircraft A333/H-V/N

Departure

Time 2026-04-24 16:14
Airport Damascus International Airport (OSDI)

Arrival

Time 2026-04-24 16:49
Airport Queen Alia International Airport (OJAI)
Time Latitude Longitude Altitude Speed Heading
2026-04-24 15:47 33.41184 36.51472 2022 ft 0 kts 227°
2026-04-24 16:00 33.41188 36.51477 2022 ft 3 kts 227°
2026-04-24 16:00 33.41202 36.51496 2022 ft 1 kts 227°
2026-04-24 16:00 33.41211 36.51506 2023 ft 1 kts 222°
2026-04-24 16:01 33.41217 36.51513 2023 ft 1 kts 209°
2026-04-24 16:01 33.41226 36.51518 2023 ft 1 kts 192°
2026-04-24 16:01 33.41234 36.51520 2023 ft 1 kts 177°
2026-04-24 16:01 33.41242 36.51519 2023 ft 1 kts 163°
2026-04-24 16:02 33.41248 36.51516 2023 ft 1 kts 149°
2026-04-24 16:02 33.41255 36.51511 2023 ft 0 kts 139°
2026-04-24 16:02 33.41258 36.51508 2023 ft 0 kts 137°
2026-04-24 16:02 33.41257 36.51508 2023 ft 0 kts 137°
2026-04-24 16:03 33.41254 36.51512 2023 ft 1 kts 137°
2026-04-24 16:03 33.41252 36.51514 2023 ft 0 kts 137°
2026-04-24 16:06 33.41244 36.51523 2023 ft 3 kts 137°
2026-04-24 16:06 33.41189 36.51613 2022 ft 9 kts 104°
2026-04-24 16:07 33.41180 36.51710 2021 ft 13 kts 95°
2026-04-24 16:07 33.41173 36.51834 2018 ft 16 kts 91°
2026-04-24 16:07 33.41333 36.51790 2016 ft 17 kts 319°
2026-04-24 16:08 33.41429 36.51689 2016 ft 19 kts 318°
2026-04-24 16:08 33.41649 36.51454 2016 ft 23 kts 319°
2026-04-24 16:09 33.41846 36.51247 2009 ft 1 kts 322°
2026-04-24 16:09 33.41877 36.51237 2009 ft 9 kts
2026-04-24 16:09 33.41957 36.51318 2009 ft 20 kts 48°
2026-04-24 16:09 33.42063 36.51459 2008 ft 24 kts 49°
2026-04-24 16:10 33.42436 36.51963 2005 ft 26 kts 49°
2026-04-24 16:11 33.42689 36.52305 2002 ft 27 kts 49°
2026-04-24 16:11 33.42818 36.52478 2002 ft 27 kts 49°
2026-04-24 16:11 33.42947 36.52652 2002 ft 27 kts 49°
2026-04-24 16:12 33.43200 36.52995 2003 ft 27 kts 49°
2026-04-24 16:12 33.43323 36.53162 2003 ft 26 kts 49°
2026-04-24 16:12 33.43584 36.53298 2003 ft 24 kts 293°
2026-04-24 16:13 33.43529 36.53139 2005 ft 21 kts 230°
2026-04-24 16:13 33.42807 36.52170 2004 ft 153 kts 229°
2026-04-24 16:14 33.41062 36.49904 3251 ft 196 kts 214°
2026-04-24 16:14 33.39837 36.49313 4370 ft 195 kts 203°
2026-04-24 16:14 33.37544 36.47756 6616 ft 192 kts 212°
2026-04-24 16:15 33.36850 36.47220 7180 ft 170 kts 209°
2026-04-24 16:15 33.33953 36.47357 7712 ft 196 kts 172°
2026-04-24 16:16 33.30934 36.47947 8202 ft 237 kts 172°
2026-04-24 16:16 33.29218 36.48283 8605 ft 254 kts 172°
2026-04-24 16:17 33.23591 36.49385 10277 ft 284 kts 172°
2026-04-24 16:17 33.20170 36.50051 10904 ft 313 kts 172°
2026-04-24 16:18 33.15631 36.50938 11855 ft 338 kts 173°
2026-04-24 16:18 33.10897 36.51859 13057 ft 352 kts 173°
2026-04-24 16:18 33.08455 36.52336 12923 ft 347 kts 173°
2026-04-24 16:19 33.03767 36.53248 12991 ft 336 kts 173°
2026-04-24 16:19 33.01460 36.53563 12994 ft 334 kts 179°
2026-04-24 16:20 32.96781 36.54025 12995 ft 335 kts 177°
2026-04-24 16:20 32.92121 36.54516 13003 ft 335 kts 177°
2026-04-24 16:20 32.89784 36.54761 12997 ft 335 kts 177°
2026-04-24 16:21 32.85389 36.55223 13012 ft 335 kts 177°
2026-04-24 16:21 32.82970 36.55478 13014 ft 335 kts 177°
2026-04-24 16:21 32.80627 36.55724 13017 ft 335 kts 177°
2026-04-24 16:22 32.78312 36.55968 13017 ft 334 kts 177°
2026-04-24 16:22 32.73645 36.56457 13026 ft 336 kts 177°
2026-04-24 16:22 32.71287 36.56711 13023 ft 336 kts 176°
2026-04-24 16:23 32.68966 36.57018 13022 ft 335 kts 176°
2026-04-24 16:23 32.66628 36.57323 13025 ft 336 kts 176°
2026-04-24 16:23 32.64321 36.57627 13013 ft 325 kts 176°
2026-04-24 16:24 32.60013 36.58191 12984 ft 298 kts 176°
2026-04-24 16:24 32.57941 36.58461 13005 ft 306 kts 176°
2026-04-24 16:24 32.55712 36.58749 13045 ft 333 kts 176°
2026-04-24 16:24 32.53307 36.59061 13022 ft 350 kts 176°
2026-04-24 16:25 32.50937 36.59374 12992 ft 343 kts 176°
2026-04-24 16:25 32.48524 36.59688 13007 ft 345 kts 176°
2026-04-24 16:25 32.46124 36.60000 13003 ft 347 kts 176°
2026-04-24 16:26 32.41275 36.60633 12993 ft 347 kts 176°
2026-04-24 16:26 32.38883 36.60943 12995 ft 348 kts 176°
2026-04-24 16:26 32.34058 36.61354 12969 ft 345 kts 189°
2026-04-24 16:27 32.31779 36.60471 12987 ft 343 kts 210°
2026-04-24 16:27 32.29770 36.58915 12992 ft 342 kts 214°
2026-04-24 16:27 32.27785 36.57361 12974 ft 343 kts 214°
2026-04-24 16:27 32.25811 36.55819 12971 ft 342 kts 214°
2026-04-24 16:28 32.23811 36.54260 12966 ft 343 kts 214°
2026-04-24 16:28 32.21795 36.52691 12965 ft 343 kts 214°
2026-04-24 16:28 32.17779 36.49569 12958 ft 344 kts 214°
2026-04-24 16:29 32.15678 36.48260 12935 ft 344 kts 199°
2026-04-24 16:29 32.13321 36.47848 12965 ft 347 kts 185°
2026-04-24 16:29 32.08443 36.47520 12952 ft 347 kts 185°
2026-04-24 16:30 32.03625 36.47178 12941 ft 347 kts 185°
2026-04-24 16:30 32.01180 36.47004 12945 ft 348 kts 185°
2026-04-24 16:30 31.98769 36.46833 12944 ft 347 kts 185°
2026-04-24 16:31 31.96345 36.46549 12935 ft 346 kts 194°
2026-04-24 16:31 31.94178 36.45430 12936 ft 343 kts 215°
2026-04-24 16:31 31.92475 36.43478 12961 ft 331 kts 234°
2026-04-24 16:31 31.91103 36.41316 12535 ft 334 kts 232°
2026-04-24 16:32 31.90134 36.39858 11895 ft 341 kts 232°
2026-04-24 16:32 31.88082 36.37384 10606 ft 330 kts 212°
2026-04-24 16:32 31.86033 36.36369 10063 ft 311 kts 197°
2026-04-24 16:32 31.83985 36.35693 9632 ft 292 kts 197°
2026-04-24 16:33 31.82055 36.35078 9280 ft 275 kts 196°
2026-04-24 16:33 31.80309 36.34529 8803 ft 268 kts 195°
2026-04-24 16:33 31.78583 36.33960 8077 ft 269 kts 202°
2026-04-24 16:33 31.77032 36.32726 7364 ft 269 kts 229°
2026-04-24 16:34 31.76140 36.30801 6680 ft 270 kts 255°
2026-04-24 16:34 31.76057 36.28637 6134 ft 265 kts 273°
2026-04-24 16:34 31.76111 36.26520 5801 ft 253 kts 269°
2026-04-24 16:34 31.76115 36.24485 5428 ft 245 kts 269°
2026-04-24 16:35 31.76110 36.22505 5136 ft 235 kts 269°
2026-04-24 16:35 31.76076 36.20623 4900 ft 226 kts 264°
2026-04-24 16:35 31.75833 36.18851 4651 ft 208 kts 260°
2026-04-24 16:35 31.75601 36.17281 4458 ft 182 kts 261°
2026-04-24 16:36 31.75400 36.15888 4625 ft 165 kts 261°
2026-04-24 16:36 31.75215 36.14594 4468 ft 157 kts 261°
2026-04-24 16:36 31.75035 36.13339 4459 ft 154 kts 261°
2026-04-24 16:36 31.74856 36.12089 4237 ft 155 kts 261°
2026-04-24 16:37 31.74674 36.10825 4042 ft 154 kts 262°
2026-04-24 16:37 31.74496 36.09585 3847 ft 153 kts 262°
2026-04-24 16:37 31.74379 36.08772 3720 ft 153 kts 262°
2026-04-24 16:37 31.74141 36.07114 3455 ft 152 kts 262°
2026-04-24 16:38 31.73964 36.05888 3259 ft 151 kts 262°
2026-04-24 16:38 31.73789 36.04670 3067 ft 151 kts 262°
2026-04-24 16:38 31.73614 36.03451 2872 ft 150 kts 262°
2026-04-24 16:38 31.73439 36.02243 2681 ft 149 kts 262°
2026-04-24 16:39 31.73266 36.01033 2485 ft 149 kts 264°
2026-04-24 16:39 31.73097 35.99863 2407 ft 130 kts 261°
2026-04-24 16:39 31.72952 35.98816 2388 ft 146 kts 255°
2026-04-24 16:39 31.72750 35.97498 2374 ft 179 kts 262°
2026-04-24 16:40 31.72547 35.95955 2352 ft 192 kts 256°
2026-04-24 16:40 31.72130 35.94552 3008 ft 167 kts 247°
2026-04-24 16:40 31.71581 35.93319 2972 ft 195 kts 229°
2026-04-24 16:40 31.70382 35.92542 2864 ft 188 kts 185°
2026-04-24 16:41 31.69107 35.92810 3081 ft 189 kts 151°
2026-04-24 16:41 31.68192 35.93912 3282 ft 193 kts 110°
2026-04-24 16:41 31.68050 35.95479 3554 ft 203 kts 83°
2026-04-24 16:41 31.68239 35.97208 3821 ft 222 kts 81°
2026-04-24 16:42 31.68461 35.99076 4036 ft 242 kts 81°
2026-04-24 16:42 31.68710 36.01112 4221 ft 264 kts 81°
2026-04-24 16:42 31.68993 36.03391 4205 ft 287 kts 81°
2026-04-24 16:42 31.69278 36.05690 4186 ft 282 kts 81°
2026-04-24 16:43 31.69556 36.07944 4191 ft 277 kts 81°
2026-04-24 16:43 31.69835 36.10188 4194 ft 273 kts 81°
2026-04-24 16:43 31.70102 36.12350 4180 ft 262 kts 81°
2026-04-24 16:43 31.70360 36.14450 4175 ft 250 kts 81°
2026-04-24 16:44 31.70601 36.16405 4164 ft 234 kts 79°
2026-04-24 16:44 31.71207 36.18058 4146 ft 213 kts 46°
2026-04-24 16:44 31.72406 36.18901 4180 ft 196 kts
2026-04-24 16:44 31.73703 36.18681 4253 ft 187 kts 329°
2026-04-24 16:45 31.74610 36.17600 4278 ft 188 kts 305°
2026-04-24 16:45 31.75322 36.16328 4154 ft 187 kts 294°
2026-04-24 16:45 31.75365 36.14862 4199 ft 168 kts 255°
2026-04-24 16:45 31.75105 36.13582 4199 ft 158 kts 260°
2026-04-24 16:46 31.74907 36.12341 4159 ft 151 kts 261°
2026-04-24 16:46 31.74721 36.11110 4094 ft 156 kts 261°
2026-04-24 16:46 31.74539 36.09873 3888 ft 154 kts 262°
2026-04-24 16:46 31.74360 36.08640 3695 ft 153 kts 262°
2026-04-24 16:47 31.74183 36.07413 3502 ft 152 kts 262°
2026-04-24 16:47 31.74007 36.06186 3306 ft 151 kts 262°
2026-04-24 16:47 31.73832 36.04965 3113 ft 151 kts 262°
2026-04-24 16:47 31.73658 36.03757 2921 ft 150 kts 262°
2026-04-24 16:48 31.73483 36.02549 2730 ft 150 kts 262°
2026-04-24 16:48 31.73302 36.01333 2527 ft 150 kts 264°
2026-04-24 16:48 31.73132 36.00151 2413 ft 143 kts 265°
2026-04-24 16:48 31.72999 35.99195 2397 ft 92 kts 261°
2026-04-24 16:49 31.72919 35.98651 2383 ft 44 kts 261°
2026-04-24 16:49 31.72878 35.98369 2376 ft 34 kts 259°
2026-04-24 16:49 31.72757 35.98203 2372 ft 25 kts 172°
2026-04-24 16:49 31.72593 35.98293 2373 ft 29 kts 95°
2026-04-24 16:50 31.72614 35.98464 2374 ft 33 kts 79°
2026-04-24 16:50 31.72663 35.98832 2377 ft 24 kts 101°
2026-04-24 16:50 31.72519 35.98849 2375 ft 28 kts 247°
2026-04-24 16:50 31.72494 35.98675 2375 ft 19 kts 262°
2026-04-24 16:51 31.72467 35.98592 2376 ft 9 kts 211°
2026-04-24 16:51 31.72425 35.98587 2376 ft 5 kts 172°
2026-04-24 16:51 31.72404 35.98590 2376 ft 0 kts 171°
2026-04-24 16:51 31.72400 35.98591 2376 ft 0 kts 171°